GW7261 Weather Reports


time (UTC)temp
F
wind
direction
speed
knots
gust
knots
rain 1hr
in
rain 24hr
in
rain mn
in
humidity
%
barometer
mb
20260509162936 69 225 2.6 4.3 0.00 0.00 0.00 56 1003.6
20260509162335 68 270 7.0 14.8 0.00 0.00 0.00 58 1003.6
20260509161735 68 225 6.1 9.6 0.00 0.00 0.00 55 1003.6
20260509161135 67 225 9.6 14.8 0.00 0.00 0.00 60 1003.6
20260509160535 67 225 7.0 13.9 0.00 0.00 0.00 60 1003.6
20260509155935 66 270 7.0 11.3 0.00 0.00 0.00 61 1003.6
20260509155335 65 225 8.7 15.6 0.00 0.00 0.00 64 1003.6
20260509154134 65 225 8.7 11.3 0.00 0.00 0.00 63 1003.7
20260509153534 65 225 6.1 8.7 0.00 0.00 0.00 65 1003.7
20260509152334 63 225 7.0 13.9 0.00 0.00 0.00 66 1003.6
20260509151734 63 225 8.7 12.2 0.00 0.00 0.00 69 1003.7
20260509151134 62 225 8.7 13.9 0.00 0.00 0.00 71 1003.7
20260509150533 62 225 12.2 18.2 0.00 0.00 0.00 70 1003.7
20260509145933 62 270 12.2 14.8 0.00 0.00 0.00 74 1003.8
20260509144733 62 225 8.7 12.2 0.00 0.00 0.00 75 1003.7
20260509144133 61 270 10.4 15.6 0.00 0.00 0.00 74 1003.8
20260509143533 61 225 9.6 13.0 0.00 0.00 0.00 74 1003.8
20260509142932 60 225 10.4 17.4 0.00 0.00 0.00 74 1003.8
20260509142332 60 225 12.2 20.0 0.00 0.00 0.00 74 1003.6
20260509141732 60 225 13.0 18.2 0.00 0.00 0.00 75 1003.6
20260509141132 60 225 11.3 17.4 0.00 0.00 0.00 77 1003.6
20260509140532 60 225 10.4 18.2 0.00 0.00 0.00 78 1003.7
20260509135932 59 270 13.0 20.9 0.00 0.00 0.00 78 1003.7
20260509135331 59 225 8.7 14.8 0.00 0.00 0.00 78 1003.6
20260509134731 59 225 9.6 13.9 0.00 0.00 0.00 79 1003.4
20260509134131 59 225 9.6 12.2 0.00 0.00 0.00 78 1003.4
20260509133531 59 225 8.7 14.8 0.00 0.00 0.00 80 1003.4
20260509132931 58 225 9.6 16.5 0.00 0.00 0.00 82 1003.5
20260509131731 57 225 12.2 20.0 0.00 0.00 0.00 83 1003.9
20260509131131 57 225 7.0 10.4 0.00 0.00 0.00 85 1003.7
20260509130530 56 225 12.2 19.1 0.00 0.00 0.00 85 1003.7
20260509125930 56 225 10.4 18.2 0.00 0.00 0.00 87 1003.6
20260509125330 56 225 7.0 8.7 0.00 0.00 0.00 88 1003.7
20260509124730 55 225 9.6 13.0 0.00 0.00 0.00 89 1003.6
20260509123529 55 225 9.6 14.8 0.00 0.00 0.00 91 1003.6
20260509122929 54 225 9.6 15.6 0.00 0.00 0.00 92 1003.6
20260509121129 53 225 7.8 12.2 0.00 0.00 0.00 95 1003.5
20260509120528 53 225 8.7 13.0 0.00 0.00 0.00 96 1003.6
20260509115928 53 225 9.6 14.8 0.00 0.00 0.00 97 1003.5
20260509115328 52 225 8.7 12.2 0.00 0.00 0.00 98 1003.6
20260509114728 52 225 9.6 15.6 0.00 0.00 0.00 98 1003.5
20260509114128 52 225 7.0 9.6 0.00 0.00 0.00 99 1003.4
20260509113528 52 180 8.7 11.3 0.00 0.00 0.00 99 1003.5
20260509112928 52 225 7.0 11.3 0.00 0.00 0.00 99 1003.3
20260509112328 52 225 11.3 17.4 0.00 0.00 0.00 99 1003.0
20260509111127 51 225 7.0 9.6 0.00 0.00 0.00 99 1003.3
20260509110527 51 225 7.8 10.4 0.00 0.00 0.00 99 1003.2
20260509105927 52 225 6.1 8.7 0.00 0.00 0.00 99 1003.0
20260509105327 52 225 7.8 13.9 0.00 0.00 0.00 99 1003.0
20260509104726 52 225 7.0 10.4 0.00 0.00 0.00 99 1003.0
20260509104126 52 225 7.0 11.3 0.00 0.00 0.00 99 1003.0
20260509103526 52 225 8.7 14.8 0.00 0.00 0.00 99 1002.9
20260509102926 52 225 9.6 15.6 0.00 0.00 0.00 98 1002.8
20260509102326 52 225 7.0 12.2 0.00 0.00 0.00 98 1002.8
20260509101726 52 225 7.0 12.2 0.00 0.00 0.00 98 1002.9
20260509101126 52 225 6.1 8.7 0.00 0.00 0.00 98 1002.9
20260509100525 51 180 4.3 7.8 0.00 0.00 0.00 98 1003.0
20260509095925 51 225 3.5 5.2 0.00 0.00 0.00 98 1003.0
20260509095325 51 225 4.3 8.7 0.00 0.00 0.00 98 1003.3
20260509094725 51 225 3.5 7.0 0.00 0.00 0.00 98 1003.2
20260509094125 51 225 6.1 8.7 0.00 0.00 0.00 98 1003.3
20260509093525 51 225 5.2 9.6 0.00 0.00 0.00 98 1003.3
20260509092924 51 225 5.2 7.0 0.00 0.00 0.00 98 1003.4
20260509092324 51 225 7.0 12.2 0.00 0.00 0.00 98 1003.5
20260509091724 51 270 5.2 8.7 0.00 0.00 0.00 98 1003.6
20260509090524 51 225 5.2 8.7 0.00 0.00 0.00 98 1003.4
20260509085324 51 225 6.1 8.7 0.00 0.00 0.00 98 1003.7
20260509084723 51 225 5.2 10.4 0.00 0.00 0.00 98 1003.7
20260509084123 51 225 7.0 10.4 0.00 0.00 0.00 98 1003.8
20260509082923 51 225 5.2 7.8 0.00 0.00 0.00 97 1003.8
20260509082323 51 225 6.1 11.3 0.00 0.00 0.00 97 1003.8
20260509081722 51 225 7.8 10.4 0.00 0.00 0.00 97 1003.8
20260509081123 51 225 6.1 9.6 0.00 0.00 0.00 96 1003.7
20260509080522 51 225 7.8 11.3 0.00 0.00 0.00 96 1003.7
20260509075922 51 225 5.2 9.6 0.00 0.00 0.00 96 1003.6
20260509075322 51 225 4.3 6.1 0.00 0.00 0.00 95 1003.7
20260509074722 51 225 4.3 7.0 0.00 0.00 0.00 95 1003.8
20260509074121 52 225 5.2 7.8 0.00 0.00 0.00 94 1003.9
20260509072921 52 225 6.1 10.4 0.00 0.00 0.00 94 1003.8
20260509071121 52 225 5.2 9.6 0.00 0.00 0.00 92 1004.2
20260509070520 53 225 6.1 8.7 0.00 0.00 0.00 92 1004.3
20260509064720 53 225 5.2 7.8 0.00 0.00 0.00 91 1004.5
20260509064120 53 225 7.0 11.3 0.00 0.00 0.00 91 1004.6
20260509063520 53 225 5.2 7.8 0.00 0.00 0.00 91 1004.6
20260509062920 53 270 8.7 11.3 0.00 0.00 0.00 90 1004.6
20260509062320 53 225 7.0 11.3 0.00 0.00 0.00 90 1004.7
20260509061119 54 225 7.0 12.2 0.00 0.00 0.00 89 1004.8
20260509060519 54 225 7.0 9.6 0.00 0.00 0.00 89 1004.8
20260509055919 54 225 8.7 13.0 0.00 0.00 0.00 89 1004.9
20260509055319 54 225 7.8 15.6 0.00 0.00 0.00 88 1005.0
20260509054719 55 225 7.0 9.6 0.00 0.00 0.00 88 1005.0
20260509054118 55 225 7.8 11.3 0.00 0.00 0.00 88 1005.0
20260509052918 55 225 7.8 10.4 0.00 0.00 0.00 87 1005.1
20260509052318 55 225 7.8 15.6 0.00 0.00 0.00 87 1005.1
20260509051118 55 225 6.1 7.8 0.00 0.00 0.00 86 1005.0
20260509050517 56 225 7.0 12.2 0.00 0.00 0.00 85 1004.9
20260509045917 56 225 7.0 11.3 0.00 0.00 0.00 85 1004.9
20260509045317 56 225 8.7 13.9 0.00 0.00 0.00 84 1005.0
20260509044717 56 225 7.8 10.4 0.00 0.00 0.00 83 1005.0
20260509044117 56 225 10.4 15.6 0.00 0.00 0.00 83 1004.9
20260509043517 56 225 7.8 13.9 0.00 0.00 0.00 82 1004.9
20260509042917 56 225 7.0 8.7 0.00 0.00 0.00 81 1004.9
20260509042316 56 225 7.8 13.9 0.00 0.00 0.00 80 1005.1
20260509041716 56 225 6.1 8.7 0.00 0.00 0.00 79 1005.0
20260509041116 57 225 5.2 11.3 0.00 0.00 0.00 77 1005.1
20260509040516 57 225 7.0 10.4 0.00 0.00 0.00 76 1005.1
20260509035916 57 225 7.0 10.4 0.00 0.00 0.00 75 1005.2
20260509035316 57 225 5.2 7.8 0.00 0.00 0.00 74 1005.2
20260509034715 58 225 5.2 9.6 0.00 0.00 0.00 73 1005.3
20260509034115 58 225 7.0 9.6 0.00 0.00 0.00 73 1005.2
20260509033515 58 225 6.1 11.3 0.00 0.00 0.00 73 1005.1
20260509032915 58 225 3.5 6.1 0.00 0.00 0.00 73 1005.1
20260509031715 59 225 5.2 9.6 0.00 0.00 0.00 72 1005.2
20260509031114 59 180 4.3 7.8 0.00 0.00 0.00 71 1005.2
20260509030514 59 225 3.5 7.8 0.00 0.00 0.00 70 1005.2
20260509025914 59 225 3.5 6.1 0.00 0.00 0.00 69 1005.2
20260509025314 59 225 5.2 11.3 0.00 0.00 0.00 68 1005.2
20260509024714 59 225 7.0 12.2 0.00 0.00 0.00 66 1005.2
20260509024114 60 225 7.0 12.2 0.00 0.00 0.00 64 1005.3
20260509022913 59 180 2.6 5.2 0.00 0.00 0.00 60 1005.2
20260509022313 59 225 4.3 8.7 0.00 0.00 0.00 59 1005.2
20260509021713 59 225 2.6 5.2 0.00 0.00 0.00 60 1005.1
20260509021113 59 225 0.0 0.9 0.00 0.00 0.00 60 1005.1
20260509020512 59 225 0.0 0.9 0.00 0.00 0.00 60 1005.0
20260509015912 60 225 0.0 0.9 0.00 0.00 0.00 57 1005.0
20260509015312 60 225 0.9 2.6 0.00 0.00 0.00 57 1005.0
20260509014112 61 225 1.7 3.5 0.00 0.00 0.00 55 1004.9
20260509013512 61 225 0.9 2.6 0.00 0.00 0.00 55 1004.9
20260509012912 62 225 3.5 5.2 0.00 0.00 0.00 54 1004.9
20260509012311 62 225 0.9 1.7 0.00 0.00 0.00 53 1004.9
20260509011712 62 225 3.5 7.0 0.00 0.00 0.00 53 1004.9
20260509011111 63 225 2.6 5.2 0.00 0.00 0.00 52 1004.9
20260509010511 63 225 3.5 6.1 0.00 0.00 0.00 52 1004.7
20260509005911 63 225 6.1 8.7 0.00 0.00 0.00 51 1004.8
20260509005311 64 225 4.3 7.8 0.00 0.00 0.00 51 1004.8
20260509004711 64 225 7.0 10.4 0.00 0.00 0.00 50 1004.8
20260509004110 64 225 7.8 12.2 0.00 0.00 0.00 48 1004.7
20260509002910 65 180 5.2 9.6 0.00 0.00 0.00 49 1004.7
20260509002310 65 225 3.5 5.2 0.00 0.00 0.00 49 1004.8
20260509001710 65 225 3.5 5.2 0.00 0.00 0.00 48 1004.9
20260509000509 65 225 3.5 5.2 0.00 0.00 0.00 47 1004.9
20260508235909 65 225 7.8 13.0 0.00 0.00 0.00 47 1004.9
20260508235309 66 225 5.2 8.7 0.00 0.00 0.00 47 1004.9
20260508234709 66 225 6.1 14.8 0.00 0.00 0.00 46 1004.9
20260508234109 67 225 6.1 9.6 0.00 0.00 0.00 48 1005.0
20260508233509 67 225 8.7 12.2 0.00 0.00 0.00 44 1005.0
20260508232908 67 225 4.3 6.1 0.00 0.00 0.00 46 1005.0
20260508231108 70 225 4.3 7.8 0.00 0.00 0.00 43 1004.9
20260508225908 70 180 7.0 12.2 0.00 0.00 0.00 43 1005.0
20260508225307 69 225 7.0 11.3 0.00 0.00 0.00 44 1005.0
20260508224707 70 225 7.0 12.2 0.00 0.00 0.00 43 1004.9
20260508224107 71 225 7.0 9.6 0.00 0.00 0.00 42 1005.2
20260508223507 72 225 4.3 7.0 0.00 0.00 0.00 40 1005.1
20260508222907 67 270 7.0 10.4 0.00 0.00 0.00 47 1005.3
20260508222307 67 225 10.4 14.8 0.00 0.00 0.00 45 1005.3
20260508221706 72 270 4.3 6.1 0.00 0.00 0.00 39 1005.2
20260508221106 73 180 2.6 4.3 0.00 0.00 0.00 39 1005.1
20260508220506 68 225 4.3 7.8 0.00 0.00 0.00 45 1005.3
20260508215906 70 225 7.0 13.0 0.00 0.00 0.00 42 1005.4
20260508215307 68 225 10.4 16.5 0.00 0.01 0.00 44 1005.3
20260508214706 68 225 9.6 18.2 0.00 0.02 0.00 42 1005.5
20260508214106 73 270 4.3 12.2 0.00 0.02 0.00 38 1005.4
20260508213505 74 270 7.0 11.3 0.00 0.02 0.00 38 1005.3
20260508212905 76 225 3.5 6.1 0.00 0.02 0.00 34 1005.2
20260508212306 72 225 3.5 6.1 0.00 0.02 0.00 37 1005.4
20260508211705 74 225 2.6 6.1 0.00 0.02 0.00 40 1005.2
20260508211105 69 180 5.2 8.7 0.00 0.02 0.00 41 1005.4
20260508210504 68 225 6.1 7.8 0.00 0.02 0.00 40 1005.5
20260508205905 67 225 7.8 12.2 0.00 0.02 0.00 43 1005.6
20260508205306 68 270 3.5 5.2 0.00 0.02 0.00 43 1005.5
20260508204704 68 225 5.2 9.6 0.00 0.02 0.00 40 1005.5
20260508204104 69 225 6.1 8.7 0.00 0.02 0.00 39 1005.6
20260508203504 73 225 9.6 13.0 0.00 0.02 0.00 36 1005.7
20260508202903 74 225 6.1 9.6 0.00 0.02 0.00 38 1005.7
20260508202306 72 225 0.9 2.6 0.00 0.02 0.00 39 1005.8
20260508201703 69 225 7.0 9.6 0.00 0.02 0.00 45 1006.1
20260508200503 77 225 1.7 4.3 0.00 0.02 0.00 35 1006.0
20260508195903 74 270 4.3 9.6 0.00 0.02 0.00 38 1006.2
20260508194102 71 225 1.7 2.6 0.00 0.02 0.00 40 1006.6
20260508193502 68 270 2.6 5.2 0.00 0.02 0.00 43 1006.8
20260508192902 71 315 0.9 2.6 0.00 0.02 0.00 42 1006.8
20260508192305 68 315 0.0 1.7 0.00 0.02 0.00 41 1006.9
20260508191702 67 225 4.3 8.7 0.00 0.02 0.00 47 1007.0
20260508191102 69 180 3.5 7.8 0.00 0.02 0.00 40 1007.0
20260508190501 69 225 3.5 6.1 0.00 0.02 0.00 42 1007.1
20260508185901 70 270 4.3 7.8 0.00 0.02 0.00 46 1007.1
20260508185301 69 270 4.3 7.8 0.00 0.02 0.00 45 1007.4
20260508184701 67 270 7.0 9.6 0.00 0.02 0.00 47 1007.4
20260508184101 68 225 6.1 9.6 0.00 0.02 0.00 49 1007.3
20260508183501 71 45 0.9 1.7 0.00 0.02 0.00 43 1007.5
20260508182300 69 225 5.2 9.6 0.00 0.02 0.00 47 1007.6
20260508181700 69 270 0.9 4.3 0.00 0.02 0.00 45 1007.7
20260508180500 66 180 5.2 9.6 0.00 0.02 0.00 51 1007.7
20260508175300 69 225 6.1 7.8 0.00 0.02 0.00 47 1008.0
20260508174659 69 270 3.5 5.2 0.00 0.02 0.00 51 1008.1
20260508174059 67 225 1.7 7.8 0.00 0.02 0.00 52 1008.2
20260508173459 65 225 4.3 7.0 0.00 0.02 0.00 54 1008.3
20260508172859 67 270 3.5 7.0 0.00 0.02 0.00 52 1008.4
20260508172258 68 270 1.7 3.5 0.00 0.02 0.00 55 1008.5
20260508171658 67 270 1.7 4.3 0.00 0.02 0.00 55 1008.6
20260508170458 64 90 3.5 7.0 0.00 0.02 0.00 57 1008.8
20260508165858 64 270 3.5 6.1 0.00 0.02 0.00 57 1008.9
20260508165258 63 270 7.0 11.3 0.00 0.02 0.00 58 1009.0
20260508164658 63 270 4.3 11.3 0.00 0.02 0.00 60 1009.0
20260508164057 63 225 7.8 12.2 0.00 0.02 0.00 60 1009.2
20260508163457 64 180 2.6 6.1 0.00 0.02 0.00 60 1009.2